Погода в Леуши

Погода в Леуши : погода сейчас, прогноз погоды и архив. Всё, что Вы хотите узнать о погоде в Леуши!

Хотите узнать прогноз погоды в Леуши? Тогда Вам сюда: Погода в Леуши

Поиск расширенной информации на нашем сайте:

Другие новости

Новости СМИ2

Главная страница сайта

Новости сайта

03.07.2017

Напоминаем, что на нашем специализированном сайте Метеоцентр.Азия вы можете получить высокодетализированные автоматические прогнозы погоды по пунктам России, СНГ и мира в авиационном формате (включающие направление и скорость ветра, видимость, явления погоды, количество и форму облачности, нижнюю и верхнюю границу облачности).


Погода в Леуши - сегодня

Время (UTC), дата Ветер
(°,м/с) 
Видим.   Явления Облачность Т
(°С)
Тd
(°С)
f(%) Тe
(°С)
Pmin
(гПа)
dP
(гПа)
Po
(мм)
O2
(г/м3)
Тmin Tmax R s Состояние
почвы
03 22.11.17 170 (Ю) 20000 м    10/3 600 м средняя, верхняя 
[Sc|Ac trans|Ci fib]
-2.4 -4.9 83 -3  1019.2  0.1  758  309  -2.4      равномерный
мокрый или
старый снег
100% 
06 22.11.17 170 (Ю) 20000 м    10/3 600 м средняя, верхняя 
[Sc|Ac lent|Ci fib]
-2.2 -5.4 79 -3  1019.4  0.1  758  308  -3         
09 22.11.17 170 (Ю) 20000 м    8/0 средняя, верхняя 
[Ac As|Ci fib]
-1.6 -5.6 74 -3  1019.6  0.3  758  308           
12 22.11.17 160 (Ю) 20000 м    10/0 верхняя 
[Ci fib]
-5.4 -7.1 88 -7  1019.8  758  312           
15 22.11.17 170 (Ю) 20000 м    ясно 
-5.9 -6.9 93 -6  1020  0.2  758  313    -0.9       
18 22.11.17 170 (Ю) 20000 м    ясно 
-5.6 -6.6 93 -7  1019.6  -0.3  758  313           
21 22.11.17 150 (ЮВ) 20000 м    4/3 600 м средняя 
[Sc|Ac cast]
-7.3 -8.1 94 -9  1019.5  -0.2  758  315           
00 23.11.17 160 (Ю) 20000 м    10/0 верхняя 
[Ci fib]
-5.7 -7 91 -7  1018.9  -0.6  757  312           
03 23.11.17 170 (Ю) 20000 м    10/3 600 м верхняя 
[Sc|Ci fib]
-6 -7.1 92 -6  1019  0.1  757  313  -8.6      равномерный
мокрый или
старый снег
100% 
06 23.11.17 160 (Ю) 20000 м  {ливн. осадки}  8/5 600 м средняя, верхняя 
[Sc|Ac cast|Ci]
-4.5 -6.1 89 -6  1019  -0.1  758  311           
09 23.11.17 170 (Ю) 20000 м    8/8 600 м верхняя 
[Sc|Ci]
-1.9 -4.4 83 -1  1018.7  -0.2  757  308           
12 23.11.17 150 (ЮВ) 20000 м    8/5 600 м верхняя 
[Sc|Ci sp]
-2.9 -4.4 89 -2  1018.6  0.1  757  309           
15 23.11.17 170 (Ю) 20000 м    8/5 600 м верхняя 
[Sc|Ci sp]
-2.5 -5.5 80 -4  1017.6  -1  757  308    -1.6       
18 23.11.17 170 (Ю) 20000 м    6/6 600 м 
[Sc]
-3.2 -5.6 83 -4  1017.3  -0.4  756  309           
21 23.11.17 180 (Ю) 20000 м    10/10 600 м 
[Sc]
-1.9 -5 79 -3  1016.4  -0.9  756  307           
00 24.11.17 180 (Ю) 20000 м    10/10 600 м 
[Sc]
-2.5 -5.6 79 -5  1015.1  -1.2  755  308           
03 24.11.17 170 (Ю) 20000 м    8/8 600 м 
[Sc]
-2.8 -6 79 -2  1014  -1.1  754  308  -3.4      равномерный
мокрый или
старый снег
100% 
06 24.11.17 210 (ЮЗ) 20000 м    10/8 600 м средняя, верхняя 
[Sc|Ac As|Ci fib]
-1.9 -5.4 77 -1  1014.1  0.2  754  307           
09 24.11.17 260 (З) 20000 м    10/1 600 м верхняя 
[Sc|Cc]
-1.7 -5.2 77 -3  1015.4  1.3  755  307           
12 24.11.17 260 (З) 20000 м    10/0 верхняя 
[Ci fib]
-3.7 -5.5 87 -5  1017.1  1.6  756  309           
15 24.11.17 310 (СЗ) 20000 м    ясно 
-5.2 -6.7 89 -8  1018.4  1.2  757  312    -1.7       
18 24.11.17 300 (СЗ) 20000 м    ясно 
-7.8 -9.8 86 -11  1019.5  1.1  758  315           
21 24.11.17 300 (СЗ) 20000 м    ясно 
-9.9 -12.5 81 -14  1020.9  1.3  759  318           
00 25.11.17 290 (З) 20000 м    ясно 
-10.3 -13.4 78 -13  1021.5  0.6  759  319           
03 25.11.17 290 (З) 20000 м    3/0 верхняя 
[Ci fib]
-11.3 -13.9 81 -13  1023  1.4  760  321  -11.3      равномерный
мокрый или
старый снег
100% 
Время (UTC), дата Ветер
(°,м/с) 
Видим.   Явления Облачность Т
(°С)
Тd
(°С)
f(%) Тe
(°С)
Pmin
(гПа)
dP
(гПа)
Po
(мм)
O2
(г/м3)
Тmin Tmax R s Состояние
почвы

Для получения пояснительной информации подведите курсор к названию столбца.

ПОГОДА в Леуши - архив

Всё, что Вы хотите узнать о погоде в Леуши - удобно и подробно!

Выберите нужную дату (начиная с 1 января 2015* года) и нажмите кнопку "Найти".
Будут отображены архивные сводки погоды по пункту Леуши, начиная с указанной даты.


Отображать данные в формате CSV (для использования в таблицах Excel)


Внимание! Наш архив погоды предназначен исключительно для личного некоммерческого использования в познавательных целях. Если Вам необходимы официальные справки о состоянии погоды (для производственных, юридических, коммерческих и т.п. целей), обращайтесь в органы Росгидромета.

*Примечание: данная дата относится к архиву по метеостанциям СССР (Россия, СНГ, Балтия).
Архив по метеостанциям Зарубежной Европы и Азии (кроме Китая) хранится 10 дней, по другим регионам земного шара (Китай, Африка, Америка, Австралия, Океания) - 1 день.

Леуши - район местоположения метеостанции


Название, широта, долгота, высота метеостанции:
Леуши 59.6°ш. 65.7°д. 72 м над ур. моря [Российская Федерация]

Дополнительная информация

В oтличие oт бoльшинства пoгoдных сайтoв мы публикуем пoдрoбную метеoинфoрмацию в детальнoм прoфессиoнальнoм фoрмате.

Характеристики температуры и влажнoсти вoздуха измеряются на высoте 2 м в тени вдали oт зданий и деревьев.
Скoрoсть ветра измеряется на высoте 10 м (на урoвне рoста челoвека скoрoсть ветра ниже в 1.5-2 раза). Если метеoстанция нахoдится в гoрoде или в лесу, тo скoрoсть ветра занижена на 2-4 м/с пo сравнению с oткрытым местoм. Скoрoсть ветра над акватoриями крупных рек и oзёр, а также на вершинах хoлмoв на 2-5 м/с выше, чем в oбычных услoвиях.
Атмoсфернoе давление в разных тoчках местнoсти мoжет значительнo oтличаться oт давления на метеoстанции, в зависимoсти oт услoвий рельефа (при пoдъёме на 10 м давление пoнижается примернo на 1 мм рт.ст.).